Terug naar catalogus

IRIDE-MS1-EAG2-7

ActiefWetenschapSSO
NORAD 66701·PAYLOAD·🇮🇹 Italy

Gelanceerd Nov 28, 2025 vanaf Vandenberg Space Force Base

Loading…

Volgende Passages (komende 24 uur)

TLE

VersSource: Space-Track

Epoch: Sep 14, 2026, 11:31 UTC

1 66701U 25276AM  26257.48021476  .00004982  00000-0  22744-3 0  9991
2 66701  97.4143 329.7151 0005918  63.6295 296.5548 15.21040440 43997

Volg IRIDE-MS1-EAG2-7 in realtime met AllMySat

Download on the App Store